Wind_Speed
17 20 22 21 20 19 17 15 16 15 14 14 13 13 13 13 13 13 12 11 11 11 12 12 13 13 13 12 12 12 12 12 12 12 11 11 10 11 11 11 10 10 10 10 11 11 11 11 11 11 12 12 10 11 13 12 11 10 10 11 11 11 11 11 10 11 14 17 18 18 17 16 16 15 16 15 15 15 15 15 14 10 7 12 14
20 21 21 21 21 20 18 16 16 16 14 14 13 13 13 13 13 12 13 11 10 11 12 13 14 13 12 12 12 11 12 12 12 11 11 10 10 11 11 10 10 9 9 10 10 11 11 11 11 10 11 12 11 11 11 9 9 9 8 10 10 9 9 9 10 13 15 16 17 17 18 18 17 16 15 15 14 14 13 12 13 10 8 13 15
21 21 20 21 21 20 19 17 17 16 15 14 13 14 13 13 12 12 12 11 10 10 12 14 13 13 12 11 12 11 11 11 11 11 11 11 11 11 10 10 9 9 8 8 10 11 11 11 11 11 11 12 11 11 10 9 9 9 9 9 9 9 8 8 12 15 16 15 14 13 16 18 17 15 14 14 14 13 13 12 12 12 11 13 14
21 21 20 21 21 20 19 17 17 16 15 14 14 13 13 13 12 12 12 12 11 11 13 13 12 12 11 11 11 12 11 11 10 10 11 11 11 11 10 9 9 8 8 8 10 11 11 11 11 11 12 12 12 11 10 10 10 11 10 10 10 10 10 13 16 17 16 14 12 10 9 12 15 14 14 13 13 14 13 13 13 13 12 12 14
20 22 21 21 19 20 19 17 17 16 15 14 14 13 13 13 12 12 12 12 11 11 12 12 12 11 10 10 11 12 11 10 9 10 12 12 11 11 9 8 8 9 9 10 11 11 11 11 11 12 12 12 12 11 10 12 13 13 13 13 13 13 15 17 18 18 17 14 11 8 5 7 12 13 13 13 13 14 13 13 13 13 12 12 13
20 21 21 20 19 19 19 18 17 15 15 14 14 14 13 13 12 12 12 12 12 12 12 12 12 10 10 9 10 11 11 10 9 10 11 11 10 10 9 8 9 10 10 11 12 11 12 11 11 12 12 12 11 11 11 13 13 14 14 14 14 14 15 15 16 15 15 13 11 7 5 7 9 11 12 13 12 12 12 13 13 14 12 11 12
19 20 20 20 19 19 19 18 16 15 16 15 14 14 14 13 13 12 13 13 12 12 12 12 12 10 10 9 9 9 10 9 8 9 10 10 9 8 8 9 10 11 11 11 12 12 12 11 12 12 12 11 10 11 12 13 13 13 13 13 13 13 14 14 15 14 13 12 8 6 7 8 9 10 12 12 11 11 11 13 14 14 13 10 10
18 19 19 19 18 18 19 17 16 16 15 15 15 14 14 13 13 13 13 14 13 13 13 12 12 11 9 9 9 9 9 8 7 9 9 8 7 6 6 7 8 10 10 11 12 12 12 11 11 11 11 10 10 12 13 13 13 13 13 12 12 12 13 14 15 14 13 10 5 4 6 7 9 9 11 12 11 10 9 12 13 12 12 9 8
17 18 18 19 18 18 19 18 16 16 16 16 16 14 14 13 13 13 13 14 13 13 13 12 11 10 9 8 8 8 8 7 7 7 6 6 6 6 7 6 7 9 10 11 12 11 12 11 11 11 10 10 11 12 12 13 13 12 12 11 12 12 12 13 13 13 11 7 6 5 4 6 9 8 9 11 11 10 9 10 9 7 8 9 9
17 17 17 18 17 18 19 18 17 16 17 17 16 15 13 13 13 13 14 14 13 13 12 12 11 10 9 9 8 8 7 7 6 5 5 5 5 7 8 8 8 10 10 11 11 11 11 11 11 11 10 11 12 12 12 13 12 12 11 10 10 11 12 12 11 11 7 5 7 8 6 7 9 8 8 10 10 10 9 8 6 3 6 10 11
17 16 16 18 18 18 19 18 18 18 18 17 16 15 13 13 13 13 13 13 12 12 12 11 11 10 10 9 8 8 7 6 5 5 4 4 5 7 8 8 10 10 10 11 11 11 11 11 11 10 11 11 11 11 12 11 11 11 10 9 9 8 9 8 8 7 3 4 6 5 5 7 8 7 8 9 9 9 9 8 7 7 9 10 11
16 15 17 18 18 18 19 18 19 20 19 17 15 15 14 14 14 13 13 12 12 12 12 11 11 10 10 9 8 7 7 6 5 4 4 3 5 7 8 9 11 11 10 10 10 10 10 10 10 10 10 10 11 10 10 10 10 10 10 9 8 8 7 5 4 2 1 5 4 3 4 5 7 6 7 8 8 9 9 9 10 10 10 10 11
16 16 18 18 17 18 18 18 20 20 18 17 15 15 15 15 14 13 12 12 12 11 11 11 11 10 9 9 8 7 6 5 4 4 3 3 5 7 8 8 10 11 10 10 10 9 9 9 9 9 9 9 9 9 9 9 9 9 9 9 8 8 7 6 3 0 2 4 3 3 4 5 5 5 5 6 7 8 9 10 10 10 10 10 11
17 17 18 16 17 18 18 19 20 19 18 16 16 16 15 15 14 13 13 12 12 12 11 10 10 10 9 8 6 5 5 4 3 3 2 2 6 7 7 7 8 9 9 10 10 9 9 9 8 7 7 7 7 8 8 8 8 8 8 7 7 6 5 5 3 2 3 2 2 3 2 4 4 5 4 5 6 7 8 9 10 10 10 10 11
17 17 17 15 16 18 18 20 19 18 18 17 17 16 15 14 14 13 13 12 12 11 11 10 10 9 7 6 5 4 4 4 3 3 3 4 7 7 6 6 7 8 9 10 10 9 9 9 7 6 6 6 6 6 7 7 7 7 7 7 5 3 2 3 3 2 2 2 2 4 3 5 6 6 5 5 6 7 8 8 8 8 9 10 11
17 18 17 15 16 17 18 18 18 18 17 17 17 16 15 14 13 13 12 12 12 11 10 10 9 7 6 5 4 4 4 4 4 4 5 6 7 7 6 6 6 7 8 9 10 10 10 8 7 6 5 4 4 4 5 5 5 6 6 6 6 5 4 3 4 2 3 4 2 5 6 6 7 6 6 6 6 7 9 9 7 8 10 11 11
17 17 17 15 16 17 17 17 17 18 17 17 17 15 15 14 14 13 12 12 12 11 10 9 8 7 6 5 5 4 4 3 4 5 7 8 9 8 7 6 6 6 6 7 9 9 8 7 6 5 4 3 3 3 3 3 3 3 4 5 5 6 5 3 4 3 4 5 4 6 8 7 8 7 7 8 8 8 9 9 8 9 11 11 12
16 15 15 15 16 17 17 17 16 17 17 16 16 15 15 14 14 14 13 12 12 11 10 9 8 7 7 6 5 5 4 4 4 6 8 10 10 9 8 7 6 6 5 6 6 7 7 6 5 4 4 3 2 2 2 2 2 1 1 2 4 5 4 3 5 4 3 5 7 9 7 7 8 8 9 9 8 8 8 9 9 9 11 12 13
15 15 15 15 16 16 16 17 16 16 17 16 15 15 15 14 14 14 13 12 12 11 10 9 9 8 7 7 6 7 7 6 5 7 8 10 9 8 8 8 7 7 6 6 6 6 6 6 5 4 4 3 3 2 2 2 1 1 1 2 3 5 4 4 7 7 6 7 10 9 7 8 9 9 9 8 8 7 8 8 8 9 11 13 15
13 14 15 15 15 16 17 16 16 17 17 16 15 15 15 15 14 13 13 13 12 11 10 9 8 8 7 8 8 8 7 7 7 6 7 8 8 7 7 7 7 7 7 7 6 6 6 6 5 5 4 4 4 4 4 4 3 3 3 3 5 5 3 4 6 6 8 8 9 9 8 9 9 9 9 8 7 7 7 7 8 9 12 15 16
12 13 14 14 15 16 17 16 16 18 17 17 17 15 16 15 13 14 13 13 12 11 9 8 7 7 8 9 10 8 5 5 6 5 5 4 6 7 7 6 6 6 7 7 6 6 6 6 6 6 5 5 5 6 6 6 5 5 5 5 6 4 3 4 5 7 8 8 8 9 9 9 9 9 9 9 9 8 8 9 10 11 13 16 15
13 14 14 14 15 15 16 16 16 18 17 18 18 16 16 16 14 14 13 12 11 10 9 8 7 8 8 9 8 7 6 5 5 4 4 3 4 6 6 5 5 5 5 6 6 6 6 5 6 5 6 6 7 7 7 6 4 4 5 5 5 5 4 3 5 6 7 9 9 8 8 9 9 10 10 10 11 10 10 11 12 12 13 14 14
13 14 14 14 15 15 16 16 17 18 17 18 19 17 17 17 16 15 14 13 12 10 10 9 9 9 8 7 7 8 7 7 7 6 5 4 4 6 6 5 5 5 5 5 5 6 6 5 5 5 5 5 6 10 11 8 4 1 1 3 3 4 4 5 4 5 9 8 8 7 8 9 10 10 11 11 11 11 11 11 12 12 12 12 13
14 14 15 14 14 16 16 16 17 17 17 18 19 18 18 18 17 17 15 14 12 10 11 10 9 8 8 7 7 8 7 8 9 8 6 5 3 5 6 5 5 5 6 6 5 5 5 5 4 3 5 6 8 10 9 8 7 3 1 2 3 3 4 5 5 8 10 7 7 7 7 8 9 10 10 10 10 10 10 11 11 11 11 12 12
14 15 17 16 15 17 17 17 17 17 17 17 17 17 18 17 17 16 15 14 12 10 10 9 9 8 8 8 7 7 7 7 7 9 8 6 4 4 4 4 4 5 4 5 6 5 5 7 6 4 6 9 8 6 3 1 2 1 1 2 3 4 3 7 7 9 11 9 9 7 7 8 8 10 11 11 11 11 10 11 11 11 11 12 12
15 16 18 17 15 16 17 17 17 17 17 16 15 16 17 16 16 15 13 12 11 10 10 9 8 9 8 7 7 6 5 6 5 5 6 5 4 4 3 2 4 5 3 4 6 4 5 8 7 5 6 6 4 2 1 1 2 2 2 2 3 5 4 9 11 11 12 11 9 7 8 8 8 9 10 11 12 11 11 11 12 12 12 12 12
15 16 19 18 16 17 17 18 17 17 17 15 14 15 16 15 14 13 12 11 11 10 9 8 8 9 8 7 6 5 4 5 4 4 4 5 4 3 3 3 3 4 2 3 4 3 3 3 3 3 2 2 2 2 2 1 2 2 2 3 4 5 5 7 10 12 13 12 11 9 8 7 7 7 7 9 9 10 11 12 12 13 13 13 12
15 16 19 18 17 18 18 17 17 17 17 15 14 15 14 13 13 12 11 11 10 10 9 9 9 9 8 6 5 4 4 4 3 3 3 3 4 3 4 3 2 2 1 2 2 2 1 1 2 2 3 1 1 2 3 2 2 2 2 4 5 5 6 6 9 10 11 12 13 13 10 7 6 6 6 6 6 7 8 9 9 11 14 14 13
17 17 18 19 18 18 18 17 17 17 16 15 14 15 14 13 13 12 11 11 10 10 10 9 8 8 7 6 4 4 3 3 3 2 2 3 3 4 3 3 3 2 1 1 2 1 2 2 1 3 3 0 2 3 2 1 2 2 3 4 5 6 6 6 7 8 9 9 12 15 12 9 7 7 7 7 6 6 5 5 5 6 10 12 13
17 18 17 19 19 18 18 18 17 17 16 15 15 14 14 13 13 12 11 11 10 9 10 9 8 7 7 6 5 4 2 3 3 2 2 3 3 4 4 4 3 2 1 0 2 1 1 1 0 3 3 1 3 2 1 1 3 3 4 5 5 6 7 7 7 6 8 9 10 14 13 12 12 10 9 9 10 9 8 8 8 7 7 8 9
17 19 17 17 19 18 18 18 17 17 16 15 15 14 14 14 12 12 11 11 11 10 10 9 8 8 7 6 5 4 3 3 3 3 3 3 4 4 4 4 4 3 2 2 1 0 0 1 1 2 2 2 3 2 2 2 3 4 5 6 6 7 7 8 8 7 7 8 9 10 11 12 13 13 11 10 11 11 11 11 11 11 10 8 7
17 19 18 18 19 19 18 18 17 17 16 15 15 14 14 14 13 12 11 12 12 11 10 9 8 8 8 7 6 5 4 3 3 4 4 4 5 5 5 4 4 4 3 2 2 1 1 1 1 1 2 3 3 3 3 3 4 5 6 6 7 7 8 8 8 8 7 7 7 7 8 10 12 12 12 12 12 12 12 12 12 12 11 10 9
17 17 18 20 19 19 18 18 17 17 16 15 15 14 14 13 13 12 12 13 13 11 10 9 9 8 8 7 6 6 5 4 4 5 5 5 5 5 6 5 5 4 3 3 2 1 1 1 1 1 2 2 2 3 2 3 5 6 7 7 7 8 8 8 8 8 7 7 7 6 6 8 10 11 13 14 13 13 13 13 13 13 12 12 12
19 18 17 20 20 18 18 17 17 17 16 15 14 13 13 13 13 12 13 13 12 11 10 9 9 8 7 6 6 6 4 4 4 5 5 5 5 6 5 5 5 4 3 2 2 1 2 1 1 1 1 1 2 2 2 4 6 6 6 7 8 8 8 8 8 8 8 7 7 7 7 7 8 9 11 14 15 14 14 13 13 14 14 14 13
19 20 19 20 19 18 18 17 17 17 16 15 14 13 14 14 13 12 13 13 12 11 9 9 9 8 7 7 6 5 5 4 4 5 5 5 5 5 5 5 4 3 3 2 2 2 2 2 2 2 0 0 2 3 3 4 6 7 7 7 7 8 8 8 8 7 7 7 7 8 8 8 8 8 9 11 13 15 15 13 13 16 16 15 14
18 20 21 21 19 18 18 18 18 18 17 16 15 14 15 14 13 13 13 12 11 10 9 8 8 7 7 7 6 5 5 5 5 6 5 5 5 5 5 4 4 3 2 1 1 1 1 2 3 3 1 0 2 3 4 5 6 7 7 7 8 7 8 7 7 7 7 7 8 8 8 8 8 9 9 9 9 12 15 15 15 17 18 16 15
18 20 21 20 20 19 18 18 19 19 18 17 16 15 15 14 13 13 13 12 10 9 8 8 7 7 6 6 7 6 5 5 5 6 5 5 5 5 5 4 3 2 2 0 0 1 2 2 2 3 1 0 2 3 6 7 7 8 8 8 8 8 8 7 7 7 7 8 7 7 8 8 9 9 9 9 8 8 11 13 14 16 17 17 16
20 21 21 21 21 20 19 19 19 19 19 18 17 15 15 14 13 13 12 11 10 8 8 8 7 6 5 5 6 6 5 5 5 5 6 5 5 5 5 3 2 1 1 1 0 1 2 2 1 2 1 1 3 6 7 8 8 9 9 9 9 8 8 7 7 7 7 7 7 7 7 8 8 8 8 8 8 8 9 10 11 13 15 17 17
21 21 22 21 20 20 19 18 19 20 19 18 17 15 15 13 12 12 12 11 9 8 8 8 6 5 4 5 6 6 6 6 5 5 6 5 5 5 4 3 1 0 1 2 1 1 1 2 1 2 3 2 4 8 9 10 10 10 10 10 9 9 8 7 7 7 7 6 6 6 6 6 7 7 7 7 8 8 9 10 9 10 11 15 17
21 22 23 22 21 20 19 18 20 19 17 18 17 14 14 14 13 13 11 10 8 7 8 7 7 7 5 5 6 5 5 6 6 5 5 5 4 4 3 2 1 1 0 2 2 3 2 2 3 4 4 5 7 10 11 11 12 11 11 10 10 9 9 8 7 6 6 6 6 6 5 5 5 5 6 6 7 8 9 9 10 9 9 11 13
22 23 23 23 22 21 19 19 20 20 18 18 17 15 16 15 13 12 10 9 8 8 8 6 6 7 6 5 5 5 6 6 6 5 5 4 4 4 3 1 1 0 0 1 1 2 3 3 4 4 5 6 8 9 11 12 11 10 9 9 9 9 9 8 7 6 6 6 6 5 5 5 4 4 4 4 6 7 8 9 9 10 9 10 10
22 24 24 22 21 20 19 19 20 21 19 18 17 18 16 14 13 13 11 9 8 8 8 7 7 7 6 5 5 6 6 6 6 5 4 4 3 3 2 0 0 0 1 2 2 3 3 3 4 4 4 5 7 9 10 9 8 9 8 7 7 7 7 7 7 7 5 5 5 5 5 5 4 3 3 4 5 6 7 7 8 9 9 9 9
21 24 24 21 20 20 19 19 20 19 19 18 18 18 16 14 14 14 11 9 9 9 9 8 8 8 8 7 6 6 6 6 5 4 4 3 2 2 1 0 1 1 2 3 3 3 3 3 3 4 4 5 6 6 8 6 3 5 8 6 6 6 5 6 6 6 5 5 4 4 4 4 4 3 3 4 4 5 5 6 7 8 9 9 9
19 20 21 21 21 20 20 20 20 18 18 19 18 17 16 15 14 14 11 10 9 10 9 7 7 8 8 7 6 6 5 5 4 3 3 2 2 1 1 1 2 2 3 3 4 3 3 3 3 3 3 5 5 4 4 3 5 2 4 4 6 6 3 6 7 5 5 4 4 4 4 2 3 3 3 3 4 4 5 5 6 7 8 9 9
22 22 24 26 23 21 23 22 22 20 17 19 18 18 18 17 16 15 13 11 10 9 9 9 8 9 9 7 6 5 5 5 4 3 3 2 1 2 2 2 3 3 4 4 4 4 4 4 4 3 2 2 5 4 2 1 3 5 4 3 3 3 2 8 8 4 4 4 5 4 3 2 2 2 2 3 4 5 5 5 6 7 8 9 9
26 29 30 31 25 22 23 22 21 20 17 20 20 19 20 18 19 20 17 14 12 11 11 12 11 9 9 8 7 6 5 5 4 4 4 3 2 3 4 4 5 5 5 5 5 5 5 5 4 4 5 4 5 5 4 3 3 5 6 5 2 3 3 7 6 3 5 5 5 4 4 3 2 2 2 3 3 4 6 6 6 7 8 9 10
27 28 25 27 26 22 21 20 20 19 18 22 21 18 19 17 18 22 19 15 15 14 13 12 12 11 10 8 8 6 4 3 3 4 4 4 4 4 5 6 6 6 6 6 5 5 5 5 5 5 5 5 5 6 6 6 5 6 6 6 5 6 6 3 0 1 4 5 5 4 4 3 3 2 3 3 3 4 5 7 7 8 8 9 10
24 25 22 24 25 22 20 20 21 20 20 21 19 17 17 16 15 17 16 15 16 15 13 12 11 11 10 8 7 6 4 3 3 4 4 5 5 5 6 7 7 6 6 6 6 6 6 6 6 6 6 5 5 6 6 6 6 6 5 6 7 7 8 7 5 3 2 3 6 5 4 4 1 1 2 4 4 4 5 6 8 8 9 10 10
24 24 24 24 25 24 22 22 22 22 21 21 20 17 17 17 16 15 16 17 16 13 14 15 13 12 11 9 8 6 5 4 4 5 5 5 6 6 7 7 7 7 7 7 8 8 8 8 7 7 7 7 7 6 6 6 6 5 5 5 6 6 6 6 6 5 5 2 3 2 4 6 5 3 2 4 5 5 5 6 8 8 10 11 11
24 24 24 25 26 25 24 24 23 23 23 23 22 20 19 18 17 16 18 19 17 14 14 16 15 13 11 10 9 7 5 4 5 6 6 6 7 7 7 7 8 8 8 9 9 9 9 10 9 9 9 8 8 8 7 7 6 6 5 5 5 5 5 5 6 5 5 4 1 1 1 3 4 5 3 3 5 4 4 5 7 8 10 11 12
24 24 25 26 26 25 24 24 23 23 25 25 24 22 19 18 18 18 20 21 20 19 18 17 15 14 13 11 9 7 6 5 6 6 6 7 7 8 8 8 9 9 9 9 9 10 10 10 10 10 10 10 9 10 10 9 9 8 8 7 7 6 5 5 6 5 5 4 2 1 1 3 2 4 4 2 3 2 5 6 7 9 10 12 13
Wind_Direction
138 137 147 159 160 164 167 157 145 144 145 144 145 144 142 141 141 141 140 140 141 138 133 131 130 125 122 123 122 117 113 111 109 104 99 90 80 76 70 66 68 75 82 89 95 97 98 97 97 99 101 96 90 93 91 86 86 91 92 84 82 91 93 91 84 81 76 69 63 59 59 59 59 57 57 61 71 73 75 72 63 58 15 24 31
138 138 144 156 160 164 168 159 147 145 145 145 147 146 145 142 142 142 139 138 141 138 135 133 131 128 126 129 126 118 115 114 111 105 98 89 83 80 75 74 72 74 81 89 97 101 103 100 97 102 104 100 96 98 95 91 94 93 93 85 81 90 95 90 83 85 85 77 66 57 52 52 56 59 61 62 70 76 80 80 70 59 33 39 36
136 137 141 153 161 164 168 160 149 147 144 145 147 147 146 145 144 144 141 140 144 139 135 133 131 131 130 133 128 122 118 114 107 102 96 88 85 84 81 82 80 82 82 89 102 105 103 102 101 104 105 105 104 101 95 94 94 92 93 87 85 91 95 87 83 86 82 76 73 65 50 43 47 58 63 63 67 72 72 65 57 48 38 46 39
136 137 142 153 160 164 168 162 151 146 144 146 146 147 147 147 145 143 143 142 144 138 135 134 133 134 133 134 129 122 116 112 106 103 101 93 87 85 82 82 83 86 86 94 106 108 105 103 102 105 106 109 109 102 97 96 91 89 90 89 92 95 97 92 86 83 77 72 73 77 69 45 37 53 66 66 68 65 61 54 46 40 35 41 39
138 137 141 149 156 165 168 162 152 146 145 147 147 147 147 146 144 143 144 144 145 142 139 136 135 136 134 134 130 123 118 114 107 103 101 94 88 86 81 84 90 86 86 100 109 108 106 104 103 106 108 110 107 101 101 100 94 90 91 92 93 94 96 93 88 82 78 75 69 74 99 72 39 46 66 66 66 63 58 52 45 38 33 38 35
138 138 140 145 152 162 169 162 150 146 145 149 148 146 146 144 145 145 145 145 147 145 142 138 135 136 135 135 132 126 120 114 107 102 99 97 95 91 85 88 96 92 89 101 110 108 107 107 106 107 108 108 105 103 104 101 96 92 89 88 87 89 93 91 86 80 78 74 68 73 86 87 61 45 63 68 65 66 60 53 45 39 38 44 45
138 138 140 145 150 161 168 160 149 146 146 150 150 146 145 146 149 148 146 145 147 146 142 138 135 137 137 137 132 122 116 112 108 108 109 109 102 96 90 88 94 94 94 102 109 111 111 110 108 109 108 106 107 107 103 99 92 88 85 83 85 88 91 88 82 76 72 61 55 79 79 82 74 52 62 71 68 69 63 54 41 31 37 47 58
138 140 142 145 151 165 166 159 148 147 147 149 150 148 149 150 153 151 149 147 148 147 144 140 137 139 138 134 127 118 117 114 110 112 115 109 91 93 98 95 98 99 101 108 111 114 115 113 113 112 110 108 107 103 96 91 86 83 83 83 86 90 93 89 83 78 69 60 58 77 75 79 77 59 62 71 68 66 61 51 32 12 21 32 51
140 141 142 143 152 168 165 158 150 147 148 149 150 151 154 153 154 155 151 147 150 150 146 141 137 138 135 130 124 122 122 117 113 110 107 92 81 96 98 92 101 107 107 113 117 118 119 118 117 115 114 110 102 95 89 85 82 81 82 84 87 89 93 89 84 79 71 74 75 65 66 79 79 63 61 70 68 62 59 53 36 2 5 18 34
140 140 142 141 152 168 167 159 150 148 147 148 151 154 156 153 155 156 151 148 151 151 145 140 137 137 133 130 129 130 124 115 113 108 99 85 87 104 101 93 102 112 112 117 121 121 122 119 120 120 117 108 97 90 85 82 80 80 81 85 87 90 94 91 82 70 70 94 79 77 77 71 76 65 58 66 66 62 60 62 66 46 11 19 27
139 139 142 143 153 165 167 160 150 148 146 149 153 156 157 154 156 155 152 151 152 150 145 140 137 137 135 133 132 129 119 111 108 102 96 89 100 112 110 104 108 117 119 122 123 123 122 123 127 125 117 104 94 88 83 79 77 78 79 84 87 91 95 90 81 64 69 100 84 89 75 70 80 65 56 57 58 56 53 53 51 42 27 22 21
137 137 139 145 155 163 165 160 148 145 147 152 156 157 158 156 156 155 154 152 152 150 145 141 139 139 136 133 131 129 122 118 114 106 94 96 118 122 115 114 122 125 124 129 127 126 127 131 134 125 114 102 95 89 84 81 78 78 78 83 86 91 93 77 75 81 122 84 72 87 60 70 77 57 53 51 46 46 39 36 32 29 25 19 15
138 135 131 138 152 161 164 155 146 146 151 155 157 159 159 157 157 156 155 154 153 150 145 141 139 138 135 134 137 139 138 140 138 126 108 112 129 124 112 114 132 135 129 133 132 133 136 139 136 124 114 105 98 93 90 87 83 81 79 85 89 95 92 71 55 66 97 70 52 70 70 71 60 45 46 39 34 34 28 24 22 19 17 12 8
138 135 132 137 148 158 161 150 147 151 153 155 158 160 159 158 158 156 154 156 154 149 144 140 138 136 139 144 149 155 159 173 178 157 143 140 135 124 115 114 130 140 137 138 139 141 145 146 139 126 117 109 103 98 96 91 87 83 80 84 89 101 90 59 48 75 65 59 54 17 69 96 45 22 21 20 20 18 16 12 10 9 5 1 0
136 136 138 141 146 155 157 150 151 154 156 158 160 161 160 159 159 158 155 155 152 145 144 141 140 140 148 156 163 169 169 184 190 177 169 148 138 128 120 118 125 140 144 145 146 149 151 150 143 132 124 117 110 104 98 96 94 85 80 77 73 75 54 8 357 75 50 8 55 359 37 86 29 5 357 359 4 3 3 355 351 352 349 348 349
135 136 137 141 147 152 154 152 155 157 159 160 161 161 159 159 159 158 156 153 149 147 148 144 146 152 156 160 161 157 152 167 172 163 156 144 143 137 128 121 121 136 147 153 155 156 155 149 144 141 138 130 119 113 106 106 101 90 79 67 59 50 50 29 352 26 36 360 10 20 45 52 14 1 347 346 349 354 355 345 335 333 336 337 336
137 138 136 142 149 152 154 155 159 160 161 161 161 161 159 160 158 155 154 152 151 153 152 150 155 158 154 150 144 134 130 147 161 156 148 145 145 144 139 131 123 127 142 154 160 159 156 152 151 154 154 154 146 134 120 115 111 102 78 56 49 33 37 49 350 353 31 355 356 36 43 24 360 353 343 340 340 343 346 345 341 332 329 328 327
142 141 138 144 150 155 156 159 165 165 163 162 160 161 162 162 158 155 154 153 157 161 157 159 159 154 147 139 127 113 113 120 139 144 142 146 148 151 150 147 139 132 138 152 163 164 162 161 162 169 175 183 189 177 160 142 140 135 84 37 30 17 24 40 336 330 17 7 24 38 29 4 348 345 340 337 338 338 337 342 344 331 320 318 321
147 146 144 146 154 157 157 161 165 170 166 161 161 163 165 161 159 156 156 158 165 168 162 161 155 151 145 132 122 105 94 92 106 124 132 137 140 151 156 156 156 148 148 154 168 176 177 179 181 186 195 213 233 243 235 224 228 231 299 335 353 351 9 13 325 329 15 30 38 33 9 353 341 340 338 336 338 333 331 336 337 322 315 316 318
152 153 150 149 161 159 159 163 165 174 169 160 161 163 164 160 161 159 159 165 168 168 160 157 153 153 149 130 118 104 90 77 78 88 106 123 133 148 162 163 166 163 159 159 166 180 187 191 197 201 212 229 246 262 267 270 277 287 307 317 327 333 348 341 326 359 29 38 37 18 359 350 341 341 338 335 332 324 323 327 328 319 316 318 319
155 162 155 154 164 159 158 165 167 174 168 163 162 160 163 160 162 164 164 169 168 163 153 150 148 148 141 122 113 118 131 99 87 90 84 104 136 148 161 166 170 173 167 165 164 172 185 194 204 211 222 233 247 261 266 272 277 281 292 301 305 300 287 318 349 17 33 45 33 11 358 352 349 348 343 340 335 329 327 325 328 325 322 323 323
161 162 156 163 164 159 162 165 170 173 169 166 160 159 163 160 163 166 166 169 165 154 143 142 144 143 133 122 127 150 165 142 132 142 119 112 128 132 142 150 161 170 167 170 168 167 173 180 194 210 224 234 241 242 242 251 266 276 283 293 284 266 278 354 11 14 46 54 33 10 0 357 357 354 350 349 345 344 342 338 335 331 329 327 327
170 161 158 172 162 161 170 168 171 173 172 168 160 160 163 162 164 165 164 164 159 148 150 155 157 157 149 149 162 170 165 154 161 163 150 147 126 108 113 118 125 138 145 155 165 170 171 168 182 202 214 219 219 219 215 209 212 231 270 279 267 276 332 45 52 54 66 55 32 17 9 7 5 1 358 358 357 357 357 354 348 343 343 340 339
173 168 162 176 164 163 175 170 172 175 174 170 163 162 163 165 165 165 163 161 158 156 165 168 167 167 166 176 178 180 171 158 165 161 159 170 149 119 117 119 118 123 126 130 144 159 168 172 169 185 204 211 219 223 216 197 199 199 184 280 295 316 2 58 58 66 70 54 45 34 25 25 19 16 11 10 10 10 8 5 3 360 359 357 356
173 173 163 177 174 166 175 172 173 177 176 172 167 165 165 167 167 166 164 162 161 166 176 170 170 174 174 185 187 187 174 161 169 159 164 183 178 167 153 145 152 152 142 160 175 166 174 185 177 182 215 222 225 231 239 211 210 230 278 303 327 334 40 82 70 74 73 60 58 47 41 42 38 39 31 26 25 23 21 16 15 13 12 12 11
171 175 163 173 179 171 176 174 174 179 178 175 170 168 167 168 169 167 164 164 162 168 178 171 174 180 181 192 192 190 173 174 184 156 171 192 180 178 172 174 185 178 187 201 191 188 196 196 194 206 222 221 210 193 220 345 10 333 323 341 356 349 36 76 75 84 78 60 57 51 50 49 49 55 49 44 40 36 33 30 30 27 25 24 23
173 173 160 165 177 177 178 175 175 180 179 177 173 170 170 169 167 166 161 162 163 168 177 174 177 181 184 194 191 186 172 179 183 163 181 185 169 161 161 177 192 178 210 214 187 206 213 189 202 229 246 203 188 185 154 87 27 336 337 7 23 11 19 55 73 85 80 64 49 37 39 45 49 56 58 57 51 47 46 43 40 38 37 32 28
178 169 157 163 179 180 176 176 176 180 179 175 174 172 171 168 164 165 160 160 165 170 176 175 178 179 181 189 187 185 182 175 171 171 174 160 148 140 144 149 149 144 191 237 198 214 287 342 223 266 320 6 11 3 48 64 34 6 17 26 30 31 27 45 72 81 81 70 45 27 19 27 42 44 48 49 47 49 50 46 42 47 45 36 31
182 170 160 162 177 180 173 177 176 179 180 172 175 174 170 168 166 166 160 162 168 171 174 173 178 176 173 180 181 195 197 169 163 170 153 138 130 124 121 115 117 120 126 300 359 21 344 339 230 273 290 148 79 24 15 49 63 34 37 44 37 40 40 43 65 76 86 81 44 27 19 19 30 31 29 26 23 26 28 25 17 37 42 33 29
181 172 168 159 167 177 174 177 177 178 178 173 175 172 171 170 167 166 162 164 171 174 173 172 177 171 165 172 174 189 194 164 167 165 146 139 122 116 113 108 112 112 116 79 19 28 323 345 313 286 286 138 100 70 4 53 69 47 38 51 51 51 52 49 55 64 87 96 60 34 25 21 20 17 19 22 21 21 19 13 4 9 16 15 17
175 168 174 161 162 174 175 177 178 178 178 176 174 172 173 172 168 165 163 168 173 178 177 173 175 166 160 168 168 174 177 174 175 164 154 140 125 115 113 112 112 111 111 111 89 79 103 39 10 323 351 36 61 58 47 46 62 64 52 54 59 60 61 58 57 53 66 94 79 49 33 23 14 6 7 12 15 18 17 16 14 13 12 7 2
174 172 170 158 163 173 175 177 178 179 181 178 174 174 175 172 168 164 166 172 174 179 179 173 173 163 159 165 167 171 174 178 171 161 158 141 132 122 115 114 112 116 116 111 127 139 108 70 44 30 25 36 52 47 54 62 57 63 63 64 67 66 67 64 64 62 57 67 68 58 48 33 18 5 2 3 5 9 9 10 11 10 11 11 7
171 179 167 154 164 173 174 178 178 179 182 180 176 177 175 170 168 166 170 173 176 180 176 173 172 159 156 162 166 170 170 173 163 154 151 141 134 125 118 117 113 114 114 109 112 107 96 79 59 56 44 49 75 60 67 85 72 64 63 66 68 67 70 70 68 68 63 56 49 48 50 37 24 14 8 3 0 3 4 3 5 6 6 7 8
166 175 170 156 165 173 174 179 178 179 181 180 179 178 174 170 169 170 174 176 178 178 172 172 167 157 157 163 167 168 167 165 156 147 145 140 127 119 117 116 115 114 110 104 103 97 78 59 20 47 41 18 82 81 81 84 78 75 69 66 70 69 69 72 71 69 66 60 51 48 46 35 27 22 13 3 360 2 4 4 6 8 6 6 6
168 169 168 159 167 174 175 178 178 179 180 180 181 179 174 171 171 172 175 177 178 173 170 170 166 162 164 166 170 170 165 162 155 149 145 139 126 117 114 109 109 110 101 95 90 79 65 47 17 9 331 138 94 95 90 83 79 81 79 76 78 77 74 72 69 68 65 62 56 51 46 38 31 27 22 11 2 359 4 12 16 15 10 7 7
174 165 163 159 167 174 175 177 177 179 179 179 180 177 176 174 172 174 175 177 175 171 170 169 167 166 167 171 174 169 163 160 153 147 141 136 129 117 109 102 98 98 88 99 111 79 57 35 16 360 315 173 132 112 94 96 93 87 84 82 80 77 78 74 68 65 62 62 58 53 48 43 38 34 30 25 14 358 2 14 17 14 10 9 10
168 160 164 162 167 172 177 178 177 179 177 179 179 175 177 176 172 174 174 175 173 171 171 167 167 167 172 180 171 161 157 155 147 140 132 127 124 118 115 109 101 97 85 54 8 34 25 10 4 358 345 136 145 126 111 114 107 95 88 83 81 77 76 73 69 67 62 62 59 57 53 47 43 39 34 28 25 9 4 12 11 4 1 6 14
162 159 166 167 170 173 180 181 178 179 178 178 176 172 174 174 172 172 171 172 172 171 169 161 162 164 172 177 166 159 155 145 137 130 125 121 119 119 120 116 103 95 117 236 249 27 5 1 350 13 52 161 153 140 130 122 110 99 90 81 80 78 76 72 69 67 66 64 62 60 56 51 47 42 39 29 26 20 14 15 10 0 351 355 7
166 163 163 165 171 175 180 183 181 180 177 174 170 168 172 171 170 170 170 173 171 169 164 154 153 155 158 166 161 155 146 134 128 125 122 123 123 120 115 105 93 68 239 252 244 96 24 38 74 88 100 118 134 134 129 119 109 100 92 84 80 78 74 72 71 69 68 66 62 61 58 54 51 44 42 33 25 21 18 17 14 7 351 348 355
168 162 161 166 172 176 181 184 183 178 171 171 170 167 170 172 172 171 171 171 164 160 154 149 155 153 150 158 152 141 139 133 126 123 118 117 116 111 106 90 329 305 289 289 331 42 77 97 92 101 114 115 121 129 128 122 112 102 96 88 81 78 79 75 73 72 69 68 62 59 57 53 52 45 42 33 26 22 17 17 12 8 358 351 349
166 161 163 170 173 176 182 183 180 173 169 172 171 169 174 177 171 164 166 162 155 153 147 145 153 146 142 155 152 138 135 131 124 120 117 114 107 95 91 58 303 279 122 267 325 53 105 122 104 108 126 134 133 136 138 135 126 117 109 101 92 84 84 82 78 76 71 69 65 61 57 50 47 38 33 28 25 21 16 14 9 5 358 352 350
164 163 166 170 173 177 181 180 175 171 173 174 171 172 175 174 164 157 163 163 160 161 149 140 136 132 136 141 143 141 134 129 123 116 105 94 90 86 84 42 282 198 149 159 148 121 125 127 123 124 128 144 148 148 158 164 154 145 143 129 118 103 95 92 83 80 78 75 72 67 61 51 44 30 25 22 18 17 13 9 3 359 355 348 350
163 165 167 168 173 178 178 175 173 171 173 175 173 169 168 168 163 162 169 171 167 161 147 136 131 132 137 132 130 135 131 129 119 98 82 69 66 84 109 166 169 166 150 138 131 122 120 116 122 128 132 150 156 159 180 214 258 177 175 172 154 148 133 119 102 91 89 86 81 69 63 50 37 28 23 19 10 5 360 359 351 346 349 346 345
156 156 164 169 173 174 174 173 172 170 170 175 172 163 162 162 159 161 164 159 152 145 137 134 135 134 133 126 121 119 113 119 115 99 91 78 80 123 165 170 145 140 138 130 123 115 110 104 96 110 144 160 152 155 188 236 323 314 220 219 178 177 172 146 134 120 115 101 93 80 67 54 32 26 20 16 5 350 331 330 337 332 337 342 341
147 153 167 174 172 172 176 175 172 171 170 174 169 162 161 157 154 153 146 143 141 141 143 144 145 142 137 132 127 128 128 124 120 115 111 106 135 154 161 149 124 116 117 118 114 107 102 97 91 89 88 121 130 132 145 136 360 8 356 332 196 198 119 143 146 134 137 112 92 83 64 60 31 17 16 12 358 348 329 315 327 331 332 336 337
153 167 174 176 175 180 184 175 170 173 171 171 169 165 164 159 158 157 152 152 154 159 162 158 156 150 141 138 135 134 137 133 120 108 106 117 142 142 136 129 120 110 105 109 108 103 95 88 89 93 88 90 112 117 103 89 49 36 33 30 26 358 65 150 170 141 144 133 109 100 74 59 16 349 344 354 351 349 344 332 328 330 334 332 331
163 171 173 178 182 188 185 173 172 172 167 171 172 170 168 163 165 169 168 165 161 166 168 160 155 150 140 137 139 132 127 140 127 106 110 124 133 129 121 117 116 110 103 105 102 98 92 85 89 96 96 96 107 112 107 104 86 59 51 58 59 36 45 85 222 135 160 165 152 144 109 79 34 3 323 323 337 334 333 337 334 330 336 333 330
165 166 171 181 185 188 183 175 176 171 166 172 173 170 170 170 172 174 176 173 166 165 162 153 147 149 150 140 134 133 123 121 112 110 120 128 130 119 111 109 108 107 104 101 95 92 92 89 90 90 88 89 94 104 106 107 101 83 69 64 64 56 51 42 12 347 288 178 162 173 165 150 140 342 319 314 314 316 312 326 334 333 339 337 331
162 164 171 178 182 186 185 178 178 175 171 173 172 170 172 176 178 175 176 176 169 160 159 163 161 161 166 150 133 134 129 119 116 123 127 127 128 116 109 109 107 106 104 101 98 95 93 90 90 90 88 85 82 91 99 97 94 90 81 72 70 70 65 49 29 8 348 6 143 165 176 176 193 207 270 303 288 291 299 315 328 335 342 339 333
166 168 171 176 179 182 182 178 178 178 176 175 172 174 179 179 178 177 177 173 166 159 161 169 168 165 165 154 139 134 134 136 133 133 134 130 125 117 114 112 106 106 104 103 103 100 97 94 92 92 92 89 84 84 89 88 82 75 71 76 81 80 77 59 38 29 16 11 36 49 181 204 203 183 183 306 286 287 313 325 334 340 345 342 338
167 169 170 175 177 176 176 176 178 177 176 175 174 178 185 183 179 179 178 172 166 165 164 165 165 163 161 154 148 149 156 160 152 144 141 133 123 119 120 115 109 107 105 104 104 104 104 100 94 90 90 88 87 86 84 84 81 75 70 71 73 68 69 65 41 30 29 15 348 359 10 320 287 162 161 272 270 326 356 351 349 349 348 345 342
Height
787 789 791 792 796 797 801 801 803 804 805 807 808 809 809 810 811 812 813 814 815 815 814 815 815 816 817 818 819 818 819 819 819 819 819 820 820 820 820 820 820 820 820 821 821 821 822 822 823 823 823 823 823 823 823 823 823 823 823 823 823 823 823 823 824 824 824 824 824 824 824 824 824 824 824 824 823 823 823 823 823 824 824 822 821
786 789 791 793 795 797 801 801 803 804 806 808 809 810 810 811 812 813 813 815 816 816 816 816 817 818 818 819 820 819 820 820 820 820 820 821 821 821 821 821 821 821 821 822 822 822 823 823 824 823 824 824 824 824 824 824 824 824 824 824 824 824 824 824 825 825 825 824 825 825 826 825 825 825 825 825 825 824 824 824 824 824 824 823 822
786 790 791 793 796 798 800 801 804 804 807 808 810 811 811 813 813 814 814 816 817 817 817 817 818 819 820 820 820 820 821 821 821 821 822 822 822 822 822 822 822 822 822 822 823 823 824 824 825 824 825 825 825 825 825 825 825 825 825 825 825 825 825 826 826 826 826 825 826 826 826 827 826 826 826 826 825 825 825 825 825 824 824 824 823
787 790 792 794 796 798 801 802 804 805 808 809 811 812 812 814 814 816 815 817 818 819 818 819 820 820 821 821 821 822 822 822 823 823 823 823 823 823 823 823 823 823 823 823 824 824 825 825 826 825 826 826 826 826 826 826 826 826 826 826 826 826 826 827 827 826 827 826 827 827 827 828 828 828 827 826 826 826 825 825 825 825 825 824 824
788 790 792 794 797 799 801 802 804 806 808 810 812 813 813 814 815 816 816 818 819 820 820 820 821 821 822 822 823 823 823 824 824 824 824 824 824 824 824 824 824 824 824 824 825 825 826 827 827 827 827 827 827 827 827 827 827 827 827 827 827 827 827 827 828 827 827 828 828 828 829 830 830 829 828 827 827 826 826 826 826 826 826 825 825
788 790 792 795 799 800 802 803 805 806 809 811 813 814 814 815 816 817 817 818 820 821 821 821 821 822 823 824 824 824 825 825 825 825 825 825 825 825 825 825 825 825 825 825 826 826 827 828 828 828 829 829 829 828 828 828 828 828 828 828 828 828 828 829 828 828 828 828 829 829 831 831 831 830 829 828 827 827 827 827 827 827 827 826 826
789 791 793 795 799 800 802 804 805 807 810 812 813 815 815 816 817 818 818 818 820 822 821 822 822 823 824 825 825 825 826 826 826 826 826 826 826 826 826 826 826 826 826 826 827 828 828 829 829 830 830 830 830 829 829 829 829 829 829 829 829 829 829 829 828 829 828 828 829 831 831 832 832 831 830 829 828 828 828 828 828 828 828 828 827
789 791 794 796 799 800 803 804 806 808 810 812 814 815 816 817 818 819 818 819 821 822 822 822 823 824 825 826 826 826 827 827 827 826 827 827 827 827 827 827 827 827 827 827 828 829 829 830 830 831 831 831 831 830 830 830 830 830 830 830 830 830 829 829 829 829 828 829 831 832 832 832 832 832 831 830 829 829 829 828 829 829 829 828 828
790 792 794 797 798 800 803 804 806 808 811 813 814 816 817 818 819 820 819 820 822 823 823 823 824 825 826 826 827 827 827 827 827 827 828 827 827 827 828 828 828 828 828 829 829 829 830 831 831 832 832 832 832 831 831 831 831 831 830 830 830 830 830 830 830 829 829 830 832 832 832 832 833 832 832 830 830 830 829 829 829 830 829 829 828
790 792 795 797 799 801 803 805 807 809 811 813 815 816 817 819 820 821 821 821 823 823 824 823 824 825 826 827 827 828 828 828 828 828 828 828 828 828 828 828 829 829 829 830 830 830 830 831 832 832 833 832 832 832 832 832 832 832 831 831 831 831 830 830 830 829 829 831 832 832 833 832 833 833 832 831 831 830 830 830 830 831 830 829 828
790 793 795 797 800 801 803 805 807 809 811 813 815 817 818 819 820 821 822 822 824 824 824 824 825 826 827 827 828 828 828 829 829 829 829 828 828 828 829 829 829 830 830 830 830 831 831 832 832 833 833 833 833 833 833 833 832 832 832 832 832 831 831 831 830 829 831 831 832 833 833 833 833 833 833 832 831 831 831 831 831 831 830 829 829
791 794 795 798 800 801 804 805 807 810 812 814 815 817 819 820 821 822 823 824 825 825 825 825 825 827 827 828 828 828 829 829 829 829 829 829 829 829 829 829 829 830 830 831 831 832 832 832 833 833 833 833 833 833 833 833 833 833 833 833 832 832 831 831 830 830 831 831 832 833 833 833 833 833 833 833 832 832 831 831 831 830 830 829 829
792 794 796 799 801 803 804 806 808 810 812 814 816 818 819 820 822 822 823 824 826 826 826 826 826 827 828 828 829 829 829 829 829 829 830 830 830 830 830 830 830 830 830 831 831 832 832 833 833 834 833 834 834 834 834 834 834 834 833 833 833 832 831 831 830 831 832 831 832 832 833 833 833 833 833 833 833 832 832 831 831 831 830 829 829
792 794 797 800 802 804 805 808 809 811 813 815 816 818 820 821 822 823 824 825 827 827 827 827 827 828 829 829 829 829 829 830 830 829 830 830 830 831 831 831 831 831 831 831 831 832 833 833 834 834 834 834 834 834 834 834 834 834 834 834 833 833 832 831 830 831 832 832 832 832 833 833 833 834 834 833 833 832 832 831 831 831 830 830 829
793 794 798 801 803 805 807 809 810 812 814 815 817 818 820 821 823 823 824 826 827 828 828 828 828 829 829 830 830 830 830 830 830 830 830 830 831 831 831 832 832 832 831 831 831 832 833 833 834 834 835 835 835 835 835 835 835 835 835 834 834 833 833 831 831 832 832 832 832 832 833 833 833 834 834 833 833 832 832 831 831 831 830 830 829
793 795 799 801 804 806 808 810 811 813 814 816 817 819 821 821 823 824 825 827 828 829 829 829 829 830 830 830 831 830 831 830 830 830 830 830 831 831 832 832 832 833 832 832 832 832 833 833 834 835 836 836 836 836 836 836 835 835 835 835 835 833 833 832 831 832 832 832 832 832 833 833 834 834 834 833 833 833 832 831 831 831 830 830 829
794 796 799 802 805 807 809 811 812 813 815 816 818 819 821 822 823 824 826 828 829 829 829 829 829 830 831 831 831 831 831 831 831 830 829 830 831 832 832 833 833 833 833 833 833 833 833 833 834 835 836 836 836 837 836 836 836 836 835 835 835 834 834 832 832 832 832 833 832 833 834 834 834 834 834 833 833 833 832 831 831 831 830 830 829
795 797 799 802 805 807 809 811 813 814 815 817 818 819 821 822 823 824 826 828 829 829 829 829 830 831 831 831 832 832 832 832 832 831 830 830 830 832 832 833 833 833 833 834 834 834 834 834 835 835 836 837 837 837 837 837 836 836 836 835 835 835 834 833 832 832 832 833 833 834 834 835 835 834 834 833 833 832 832 831 831 831 830 830 829
795 797 799 802 804 807 809 811 814 815 816 817 818 819 821 822 823 825 826 828 829 829 829 829 830 831 831 831 832 832 833 833 833 832 831 831 831 832 832 833 833 833 833 834 834 834 834 834 835 835 836 837 837 837 837 837 836 836 836 835 835 834 834 833 832 832 832 833 834 834 835 835 835 834 833 833 832 832 831 831 831 831 830 830 829
796 797 799 802 804 806 809 812 814 815 816 817 818 819 821 822 824 826 827 828 828 829 829 830 830 830 831 831 832 833 834 834 834 834 833 832 832 833 833 834 834 834 833 834 834 834 835 835 835 835 836 836 837 837 837 837 836 836 836 835 835 834 833 833 833 833 832 833 835 835 835 835 835 834 833 833 832 831 831 830 830 830 830 829 829
796 797 799 802 804 806 809 812 813 815 815 816 818 819 821 822 824 826 827 828 828 829 830 830 831 831 831 831 832 833 834 834 835 836 835 834 834 833 834 834 835 835 834 834 834 834 835 835 835 835 835 835 836 836 836 836 836 835 835 835 834 833 833 833 834 833 833 834 835 834 835 835 834 834 833 832 831 831 830 830 830 830 830 829 828
796 797 800 802 804 806 809 811 813 814 815 816 817 818 820 821 824 826 827 828 828 830 830 831 832 832 832 831 832 833 834 835 836 836 836 835 835 834 834 835 835 835 835 835 835 835 835 835 835 835 835 835 834 835 835 835 835 835 834 834 833 833 833 834 833 833 834 835 834 834 834 834 834 833 833 832 831 831 830 830 830 830 830 829 828
795 796 800 803 804 807 809 811 812 813 814 815 816 817 819 821 823 825 827 828 828 829 830 832 832 832 832 832 833 833 833 834 835 836 836 836 835 835 835 835 835 836 835 835 835 835 835 835 835 835 834 834 833 833 833 834 834 834 834 833 833 833 834 834 833 834 835 834 833 833 834 834 834 833 833 832 831 831 830 830 830 830 829 829 828
795 796 800 803 805 807 809 811 812 813 814 814 816 817 819 821 823 824 826 827 828 829 831 831 832 832 832 833 833 833 833 833 833 835 835 836 836 835 835 835 835 835 835 835 835 835 835 835 834 834 834 833 832 832 832 833 833 833 833 833 833 833 834 834 834 835 835 833 833 834 834 834 834 834 833 832 832 831 830 830 830 829 829 828 828
795 796 800 803 805 807 809 810 811 812 813 814 815 817 818 821 822 824 826 826 828 829 830 831 831 832 832 832 832 832 833 833 833 834 834 834 835 834 834 834 835 835 835 835 835 835 834 834 833 833 833 832 832 832 832 832 832 833 833 833 833 833 833 834 835 835 835 833 833 834 834 834 834 834 833 833 832 831 831 830 830 829 829 828 827
794 796 798 803 805 807 808 809 811 811 813 814 815 817 818 820 822 823 825 826 827 829 830 830 831 831 832 832 832 832 832 833 834 834 833 833 833 833 834 834 834 834 834 834 834 834 833 833 833 832 832 831 832 832 832 832 833 833 833 833 832 833 833 833 834 835 834 834 835 835 835 834 834 834 833 833 832 832 831 831 830 829 829 828 827
792 795 798 802 804 806 808 809 810 811 812 814 815 817 818 820 822 823 824 826 827 828 830 830 830 830 831 832 832 832 832 833 833 833 833 832 832 833 834 834 833 833 833 832 833 833 832 832 832 832 832 832 832 831 831 832 833 833 833 833 833 834 834 834 835 835 835 835 836 836 836 835 835 834 833 833 832 832 832 831 831 830 829 828 828
792 795 798 801 804 806 807 808 810 811 812 813 815 816 818 820 821 823 824 825 827 828 829 830 831 830 831 832 832 832 832 832 832 833 832 832 832 832 833 833 833 833 833 832 832 832 832 832 832 832 833 833 833 832 831 832 833 834 834 834 834 834 835 835 835 836 836 836 837 837 836 836 835 834 834 833 833 832 832 831 831 830 830 829 828
792 794 797 799 803 805 806 808 809 810 811 812 814 816 818 820 821 823 823 825 827 828 829 830 830 830 831 831 832 832 831 831 832 832 832 831 832 832 832 833 833 833 833 832 832 832 832 832 832 832 833 833 833 832 832 832 833 834 834 835 835 835 835 835 836 836 837 837 837 837 837 837 836 835 834 833 833 832 832 831 831 830 830 829 828
791 793 796 798 802 804 806 808 808 810 811 812 814 815 818 819 820 822 823 825 826 827 828 829 830 830 830 831 831 831 831 831 831 831 832 831 831 832 832 833 833 833 833 833 833 833 833 833 832 832 832 832 832 832 832 832 833 834 835 835 836 836 836 836 836 837 837 837 837 837 838 837 836 836 835 834 833 833 832 831 830 830 830 829 829
790 793 795 798 801 804 806 807 808 810 811 812 813 815 817 818 820 821 823 824 826 827 827 828 829 829 830 830 831 831 831 831 831 831 831 831 832 832 832 833 834 834 834 834 834 834 834 834 833 833 832 832 832 832 833 833 834 835 836 836 836 836 837 837 837 837 838 837 837 838 838 838 837 836 835 835 834 833 833 832 831 831 830 830 829
789 792 794 797 801 803 805 807 808 809 811 812 813 815 816 818 820 821 822 824 824 825 826 827 827 828 829 829 830 831 831 831 831 831 831 831 832 832 833 833 834 834 834 834 835 835 834 834 834 834 833 833 834 833 834 835 835 836 836 837 837 837 838 838 838 839 839 839 839 838 838 838 837 837 836 836 835 834 833 832 832 831 830 830 829
789 792 793 796 800 803 804 806 807 809 810 812 813 814 816 817 819 820 822 823 823 824 825 826 827 827 828 829 830 830 830 831 831 831 832 832 832 832 833 833 834 834 835 835 835 835 835 835 835 835 835 835 835 835 835 835 836 837 837 838 838 839 839 839 840 840 840 840 840 840 839 839 838 837 837 836 836 835 833 833 832 832 831 830 829
788 791 793 796 800 802 804 805 807 808 810 812 813 814 816 817 819 819 821 822 823 823 824 825 826 826 827 828 829 830 830 830 831 831 832 832 832 833 833 834 834 835 835 835 835 835 835 835 835 835 835 835 835 835 835 836 837 838 839 839 839 840 840 840 841 841 841 841 841 841 841 840 840 839 838 837 836 835 834 833 833 832 831 830 829
787 790 793 796 799 801 803 805 806 808 809 811 812 814 815 816 818 819 820 821 822 823 824 825 825 826 827 828 829 829 830 830 831 831 832 833 833 833 834 834 835 835 835 835 836 836 836 836 836 835 836 835 835 836 836 837 839 840 840 840 841 841 841 841 841 842 842 842 842 841 841 841 840 840 839 838 837 836 835 834 833 832 831 830 829
786 789 792 795 798 800 802 804 805 807 808 810 812 813 815 816 817 818 819 820 822 823 824 824 825 826 826 827 829 829 829 830 831 831 832 832 833 834 834 835 835 836 836 836 836 836 836 836 836 836 836 835 835 836 837 839 840 841 841 842 842 842 842 842 842 843 842 842 842 842 842 841 841 840 840 839 839 837 836 835 833 832 831 830 829
785 788 792 795 797 800 801 803 804 806 807 809 811 812 814 815 816 817 819 820 821 822 823 824 824 825 825 827 829 830 830 830 831 831 832 832 833 834 835 835 836 836 836 836 836 836 836 836 836 836 836 836 836 837 839 840 841 842 842 842 842 843 843 843 843 843 843 843 843 843 842 842 841 841 840 840 840 839 837 836 834 833 832 831 830
785 788 791 794 796 799 800 802 803 805 807 808 810 812 813 815 816 817 818 819 821 822 822 823 824 824 826 827 829 830 830 830 831 831 832 832 833 834 835 836 836 836 837 836 836 837 837 837 837 836 836 836 836 838 840 841 842 843 843 843 843 844 844 844 844 844 844 844 843 843 843 842 842 842 841 841 840 839 838 837 836 835 833 832 831
785 787 790 793 795 798 800 801 803 804 806 808 810 811 813 814 816 817 818 819 820 821 822 823 823 824 826 827 828 829 830 830 831 831 832 833 834 834 835 836 836 837 837 836 836 836 837 837 837 836 836 837 837 838 841 842 843 843 844 844 844 844 844 845 845 845 845 844 844 844 844 843 843 842 842 841 841 840 839 838 837 836 835 833 831
784 786 789 792 795 797 799 800 802 804 806 808 810 812 813 814 815 816 818 819 820 821 822 823 823 824 826 827 828 829 829 830 831 832 832 833 834 835 835 836 836 836 836 836 835 835 837 837 837 837 837 837 838 839 841 842 843 844 844 845 845 845 845 845 845 845 845 845 845 844 844 844 844 843 842 842 841 840 839 838 837 837 836 834 832
783 785 788 791 793 796 797 799 801 803 805 807 809 811 812 814 815 816 817 818 820 821 822 823 824 825 826 827 828 829 830 830 831 832 833 833 834 834 835 836 836 836 836 836 836 836 837 837 837 838 838 838 839 840 841 842 842 844 845 845 846 846 846 846 846 846 846 845 845 845 845 844 844 844 843 842 841 840 840 839 838 837 836 835 834
782 785 787 790 793 795 796 798 800 802 804 806 807 809 811 813 814 816 817 819 820 821 822 824 825 826 827 828 828 829 830 831 832 832 833 834 834 835 835 836 836 836 837 837 837 837 837 838 838 838 838 838 839 840 841 841 840 841 842 844 845 846 847 846 846 846 846 846 846 845 845 844 844 844 843 843 842 841 841 839 838 837 836 835 834
781 784 787 790 792 793 795 797 799 801 803 805 806 808 810 812 814 815 817 819 820 821 822 823 825 826 827 828 829 830 831 832 832 833 834 834 835 835 836 836 836 836 837 836 836 837 837 837 838 838 838 839 839 840 840 840 839 839 839 840 842 844 846 847 846 847 846 846 846 845 845 845 844 844 843 843 842 842 841 840 838 837 836 835 834
780 784 788 790 790 791 793 794 796 799 801 803 805 806 808 811 813 815 816 818 820 821 822 823 825 826 827 829 830 830 831 832 833 834 834 835 835 835 836 836 836 836 836 836 836 837 837 837 838 838 838 838 839 839 840 840 839 839 837 835 835 838 841 844 845 846 846 846 846 846 845 845 845 844 844 843 842 842 841 840 838 837 836 835 834
779 783 785 786 787 789 790 791 794 796 799 802 804 805 807 809 811 813 815 818 820 821 822 824 825 826 827 829 830 831 832 833 834 834 834 835 835 835 836 836 836 836 836 836 836 837 837 838 838 838 838 838 838 839 839 839 839 839 837 835 834 834 836 840 843 845 846 845 846 846 845 845 845 844 844 843 842 842 841 839 838 837 836 835 834
776 779 780 782 785 786 788 791 793 795 798 801 803 803 805 807 809 810 812 815 818 820 821 823 825 826 827 829 831 832 833 833 834 834 834 835 835 835 835 835 835 835 836 836 836 837 837 838 838 838 839 838 839 839 839 839 839 839 839 838 837 836 836 837 839 842 845 845 845 846 845 845 845 844 843 843 842 842 840 839 838 837 836 835 833
774 777 780 781 783 785 787 790 793 794 797 800 801 802 804 807 808 809 811 814 817 818 821 823 824 826 827 829 830 831 832 833 833 833 833 834 835 835 835 834 834 835 835 836 836 837 837 837 838 839 839 839 839 839 839 840 840 840 840 839 839 838 837 837 836 838 841 843 845 845 845 845 845 844 843 843 842 841 840 839 838 837 836 835 833
772 775 779 781 782 784 786 789 792 794 796 798 800 802 804 806 809 810 812 814 816 818 820 822 824 826 827 828 829 830 832 832 833 833 833 834 834 835 835 834 835 835 836 836 836 837 837 838 838 838 839 839 840 840 840 840 840 841 841 840 839 838 838 838 838 837 836 838 841 843 843 844 844 844 844 843 842 841 840 839 838 837 835 834 833
771 774 776 779 781 783 786 788 791 794 795 797 799 802 804 805 808 810 812 814 815 817 819 820 822 824 826 828 829 830 831 832 833 833 834 834 834 835 835 835 836 836 836 836 836 836 837 838 838 839 839 840 840 840 841 841 841 841 841 841 840 840 839 839 839 839 836 835 837 839 841 842 843 843 843 842 841 840 839 838 837 836 835 834 832
769 772 775 777 779 782 785 787 790 792 794 796 798 800 802 803 806 808 810 813 814 816 819 819 820 823 826 828 828 830 831 832 833 834 834 834 834 835 835 836 836 836 836 836 837 837 838 838 839 839 840 840 841 841 841 842 842 842 842 841 841 841 841 841 840 840 839 837 837 837 838 839 839 841 842 841 840 839 838 838 837 836 835 833 832
767 770 773 775 778 780 783 786 788 791 792 794 797 798 799 801 803 806 809 811 813 815 817 818 819 822 825 826 828 829 831 832 833 834 834 835 834 835 836 836 836 836 837 837 838 838 839 839 840 840 841 841 841 842 842 842 842 843 843 842 843 843 842 843 843 842 841 840 839 838 837 837 835 837 840 840 839 838 837 837 836 835 834 833 832